Terminal Aerodrome Forecast
Issued by NWS

Home | Current Version | Previous Version | Graphics & Text | Print | Product List | Glossary On
Versions: 1 2 3 4 5 6 7 8 9 10 11 12 13 14 15 16 17 18 19 20 21 22 23
000
FTUS43 KGRB 181447 AAA
TAFATW
TAF AMD
KATW 181447Z 1815/1912 36010G18KT P6SM OVC009
      TEMPO 1815/1818 SCT009 OVC012
     FM181800 35015G23KT P6SM BKN028
     FM190100 31014KT P6SM BKN035=

USA.gov is the U.S. government's official web portal to all federal, state and local government web resources and services.